TimeCST,TemperatureF,Dew PointF,Humidity,Sea Level PressureIn,VisibilityMPH,Wind Direction,Wind SpeedMPH,Gust SpeedMPH,PrecipitationIn,Events,Conditions,WindDirDegrees,DateUTC
12:53 AM,32.0,19.9,61,30.14,10.0,SSE,5.8,-,N/A,,Overcast,150,2012-12-31 06:53:00
1:53 AM,32.0,21.0,64,30.13,10.0,SSE,8.1,-,N/A,,Overcast,150,2012-12-31 07:53:00
2:53 AM,33.1,21.9,64,30.13,10.0,South,9.2,-,N/A,,Overcast,170,2012-12-31 08:53:00
3:53 AM,33.1,21.9,64,30.12,10.0,SSE,9.2,-,N/A,,Overcast,150,2012-12-31 09:53:00
4:53 AM,33.1,23.0,66,30.09,10.0,SSE,8.1,-,N/A,,Overcast,150,2012-12-31 10:53:00
5:53 AM,34.0,23.0,64,30.07,10.0,SE,8.1,-,N/A,,Overcast,140,2012-12-31 11:53:00
6:53 AM,34.0,24.1,67,30.08,10.0,SE,6.9,-,N/A,,Overcast,140,2012-12-31 12:53:00
7:19 AM,33.8,28.4,81,30.05,1.8,SSE,9.2,-,0.00,Snow,Light Snow,160,2012-12-31 13:19:00
7:35 AM,32.0,30.2,93,30.07,1.5,South,8.1,-,0.00,Snow,Light Snow,170,2012-12-31 13:35:00
7:49 AM,32.0,30.2,93,30.06,1.0,SSE,5.8,-,0.01,Snow,Light Snow,150,2012-12-31 13:49:00
7:53 AM,32.0,30.0,92,30.08,1.0,SE,5.8,-,0.02,Snow,Light Snow,140,2012-12-31 13:53:00
8:03 AM,32.0,30.2,93,30.05,0.5,SE,4.6,-,0.01,Fog-Snow,Snow,140,2012-12-31 14:03:00
8:28 AM,32.0,30.2,93,30.05,0.8,SE,4.6,-,0.03,Snow,Light Snow,140,2012-12-31 14:28:00
8:53 AM,32.0,30.9,96,30.09,0.8,SSE,3.5,-,0.05,Snow,Light Snow,150,2012-12-31 14:53:00
9:10 AM,32.0,32.0,100,30.07,1.2,SSE,3.5,-,0.00,Snow,Light Snow,160,2012-12-31 15:10:00
9:37 AM,32.0,30.2,93,30.07,1.8,ESE,3.5,-,0.00,,Overcast,120,2012-12-31 15:37:00
9:53 AM,33.1,32.0,96,30.09,1.8,East,3.5,-,0.00,Snow,Light Snow,90,2012-12-31 15:53:00
10:49 AM,33.8,32.0,93,30.05,4.0,ESE,9.2,-,0.00,,Overcast,110,2012-12-31 16:49:00
10:53 AM,33.1,32.0,96,30.08,3.0,East,8.1,-,0.00,,Overcast,100,2012-12-31 16:53:00
11:20 AM,33.8,33.8,100,30.05,2.5,ESE,8.1,-,0.00,Snow,Light Snow,120,2012-12-31 17:20:00
11:30 AM,33.8,33.8,100,30.03,3.0,East,8.1,-,0.00,Snow,Light Snow,100,2012-12-31 17:30:00
11:53 AM,34.0,33.1,96,30.05,3.0,ESE,5.8,-,0.00,Snow,Light Snow,110,2012-12-31 17:53:00
12:53 PM,34.0,33.1,96,30.03,3.0,East,6.9,-,0.00,,Overcast,100,2012-12-31 18:53:00
1:08 PM,33.8,33.8,100,29.98,2.5,ESE,8.1,-,0.00,,Light Drizzle,110,2012-12-31 19:08:00
1:25 PM,33.8,33.8,100,29.97,1.8,East,8.1,-,0.01,Rain,Light Rain,100,2012-12-31 19:25:00
1:35 PM,33.8,33.8,100,29.97,1.5,East,5.8,-,0.01,Rain,Light Rain,100,2012-12-31 19:35:00
1:53 PM,34.0,34.0,100,29.99,1.5,East,8.1,-,0.01,Rain,Light Rain,90,2012-12-31 19:53:00
1:57 PM,33.8,33.8,100,29.95,2.0,East,6.9,-,0.01,,Light Drizzle,100,2012-12-31 19:57:00
2:53 PM,35.1,34.0,96,30.00,1.8,East,4.6,-,0.01,,Light Drizzle,80,2012-12-31 20:53:00
3:43 PM,33.8,33.8,100,29.98,0.8,Calm,Calm,-,0.03,Snow,Light Snow,0,2012-12-31 21:43:00
3:53 PM,33.1,33.1,100,30.02,0.8,NNE,3.5,-,0.04,Snow,Light Snow,30,2012-12-31 21:53:00
4:10 PM,33.8,33.8,100,29.99,0.8,North,4.6,-,0.01,Snow,Light Snow,350,2012-12-31 22:10:00
4:28 PM,33.8,33.8,100,30.00,1.0,North,8.1,-,0.02,Snow,Light Snow,10,2012-12-31 22:28:00
4:53 PM,33.1,33.1,100,30.04,1.0,NNE,8.1,-,0.02,Snow,Light Snow,20,2012-12-31 22:53:00
5:29 PM,33.8,32.0,93,30.02,2.0,NNE,11.5,-,0.01,Snow,Light Snow,30,2012-12-31 23:29:00
5:53 PM,33.1,32.0,96,30.04,2.0,NNE,10.4,-,0.01,Snow,Light Snow,30,2012-12-31 23:53:00
6:05 PM,32.0,30.2,93,30.02,3.0,NNE,15.0,-,0.00,Snow,Light Snow,30,2013-01-01 00:05:00
6:53 PM,32.0,30.9,96,30.06,6.0,NNE,12.7,-,0.00,,Overcast,30,2013-01-01 00:53:00
7:53 PM,30.0,28.9,96,30.09,6.0,NNE,13.8,-,N/A,,Overcast,30,2013-01-01 01:53:00
8:53 PM,28.9,27.0,92,30.12,6.0,NNE,12.7,-,0.00,,Overcast,20,2013-01-01 02:53:00
9:53 PM,26.1,24.1,92,30.14,6.0,North,15.0,-,N/A,,Overcast,10,2013-01-01 03:53:00
10:53 PM,26.1,23.0,88,30.17,6.0,NNE,10.4,-,0.00,,Light Freezing Drizzle,20,2013-01-01 04:53:00
11:53 PM,26.1,24.1,92,30.17,4.0,NNE,11.5,-,0.00,Snow,Light Freezing Drizzle,20,2013-01-01 05:53:00